Flight Track Log - Related Links

Times and Time Zones

All times are in EDT time to prevent confusion due to time zone crossing. See the EJM826 flight status page for this flight to view local times or setup timezone preferences in your user account.

Time Position Orientation Groundspeed Altitude Reporting Facility
EDT Latitude Longitude Course Direction KTS MPH feet Rate Location/Type
Thu 07:01:06 PM 34.0075 -84.6753 220° Southwest 182 209 4,000  Level Atlanta Center
Thu 07:02:06 PM 33.9675 -84.7325 230° Southwest 227 261 7,100 2,900 Climbing Atlanta Center
Thu 07:03:06 PM 33.9214 -84.7872 225° Southwest 233 268 9,800 1,400 Climbing Atlanta Center
Thu 07:04:06 PM 33.8583 -84.8467 218° Southwest 267 307 9,900 450 Climbing Atlanta Center
Thu 07:05:06 PM 33.7892 -84.9086 217° Southwest 301 346 10,700 1,450 Climbing Atlanta Center
Thu 07:06:00 PM 33.7617 -84.8550 220° Southwest  Level FlightAware Approximate
Thu 07:06:06 PM 33.7197 -84.9878 223° Southwest 334 384 12,800  Level Atlanta Center
Thu 07:07:06 PM 33.6628 -85.0572 225° Southwest 334 384 14,400 1,950 Climbing Atlanta Center
Thu 07:08:06 PM 33.5953 -85.1411 226° Southwest 339 390 16,700 2,150 Climbing Atlanta Center
Thu 07:09:06 PM 33.5297 -85.2200 225° Southwest 339 390 18,700 2,000 Climbing Atlanta Center
Thu 07:10:06 PM 33.4975 -85.3217 249° West 331 381 20,700 1,800 Climbing Atlanta Center
Thu 07:11:06 PM 33.4817 -85.4336 260° West 336 387 22,300 1,600 Climbing Atlanta Center
Thu 07:12:06 PM 33.4636 -85.5503 260° West 352 405 23,900 1,650 Climbing Atlanta Center
Thu 07:13:06 PM 33.4431 -85.6744 259° West 358 412 25,600 1,550 Climbing Atlanta Center
Thu 07:14:06 PM 33.4228 -85.7961 259° West 358 412 27,000 1,400 Climbing Atlanta Center
Thu 07:15:06 PM 33.4044 -85.9000 258° West 360 414 28,400 1,350 Climbing Atlanta Center
Thu 07:16:06 PM 33.3858 -86.0217 260° West 378 435 29,700 1,250 Climbing Atlanta Center
Thu 07:17:06 PM 33.3650 -86.1506 259° West 390 449 30,900 1,450 Climbing Atlanta Center
Thu 07:18:06 PM 33.3461 -86.2794 260° West 395 455 32,600 1,550 Climbing Atlanta Center
Thu 07:19:06 PM 33.3247 -86.4081 259° West 395 455 34,000 1,350 Climbing Atlanta Center
Thu 07:20:06 PM 33.3039 -86.5169 257° West 389 448 35,300 1,300 Climbing Atlanta Center
Thu 07:21:06 PM 33.2819 -86.6703 260° West 401 461 36,600 1,450 Climbing Atlanta Center
Thu 07:22:06 PM 33.2603 -86.8014 259° West 401 461 38,200 1,500 Climbing Atlanta Center
Thu 07:23:06 PM 33.2364 -86.9272 257° West 408 470 39,600 900 Climbing Atlanta Center
Thu 07:24:06 PM 33.1875 -87.0522 245° Southwest 408 470 40,000 200 Climbing Atlanta Center
Thu 07:25:06 PM 33.1261 -87.1742 239° Southwest 421 484 40,000  Level Atlanta Center
Thu 07:26:06 PM 33.0686 -87.3033 242° Southwest 438 504 40,000  Level Atlanta Center
Thu 07:27:06 PM 33.0064 -87.4347 241° Southwest 444 511 40,000  Level Atlanta Center
Thu 07:29:21 PM 32.8658 -87.7456 242° Southwest 441 507 40,000  Level Memphis Center
Thu 07:30:21 PM 32.8078 -87.8733 242° Southwest 441 507 40,000  Level Memphis Center
Thu 07:31:21 PM 32.7600 -87.9908 244° Southwest 446 513 40,000  Level Memphis Center
Thu 07:32:21 PM 32.7019 -88.1181 242° Southwest 441 507 40,000  Level Memphis Center
Thu 07:33:21 PM 32.6414 -88.2456 241° Southwest 441 507 40,000  Level Memphis Center
Thu 07:34:21 PM 32.5808 -88.3750 241° Southwest 441 507 40,000  Level Memphis Center
Thu 07:35:21 PM 32.5203 -88.5022 241° Southwest 441 507 40,000  Level Memphis Center
Thu 07:36:21 PM 32.4594 -88.6314 241° Southwest 441 507 40,000  Level Memphis Center
Thu 07:37:21 PM 32.4006 -88.7606 242° Southwest 441 507 40,000  Level Memphis Center
Thu 07:38:21 PM 32.3542 -88.8942 248° West 441 507 40,000  Level Memphis Center
Thu 07:39:21 PM 32.3142 -89.0300 251° West 441 507 40,000  Level Memphis Center
Thu 07:40:21 PM 32.2736 -89.1656 251° West 441 507 40,000  Level Memphis Center
Thu 07:41:21 PM 32.2353 -89.3036 252° West 441 507 40,000  Level Memphis Center
Thu 07:42:21 PM 32.1947 -89.4392 251° West 441 507 40,000  Level Memphis Center
Thu 07:43:21 PM 32.1539 -89.5747 250° West 441 507 40,000  Level Memphis Center
Thu 07:44:21 PM 32.1150 -89.7122 252° West 446 513 40,000  Level Memphis Center
Thu 07:45:21 PM 32.0739 -89.8475 250° West 446 513 40,000  Level Memphis Center
Thu 07:46:21 PM 32.0325 -89.9847 250° West 446 513 40,000  Level Memphis Center
Thu 07:47:21 PM 31.9911 -90.1197 250° West 446 513 40,000  Level Memphis Center
Thu 07:48:08 PM 31.9633 -90.2211 252° West 441 507 40,000  Level Houston Center
Thu 07:49:09 PM 31.9228 -90.3556 250° West 438 504 40,000  Level Houston Center
Thu 07:50:11 PM 31.8742 -90.5178 251° West 439 505 40,000  Level Houston Center
Thu 07:51:13 PM 31.8328 -90.6517 250° West 437 503 40,000  Level Houston Center
Thu 07:52:17 PM 31.7922 -90.7869 251° West 439 505 40,000  Level Houston Center
Thu 07:53:17 PM 31.7503 -90.9233 250° West 443 510 40,000  Level Houston Center
Thu 07:54:18 PM 31.7089 -91.0589 250° West 444 511 40,000  Level Houston Center
Thu 07:55:20 PM 31.6669 -91.1917 250° West 435 501 40,000  Level Houston Center
Thu 07:56:22 PM 31.6183 -91.3564 251° West 443 510 40,000  Level Houston Center
Thu 07:57:24 PM 31.5753 -91.4914 250° West 442 509 40,000  Level Houston Center
Thu 07:58:26 PM 31.5339 -91.6281 250° West 444 511 40,000  Level Houston Center
Thu 07:59:28 PM 31.4897 -91.7644 249° West 444 511 40,000  Level Houston Center
Thu 08:00:30 PM 31.4469 -91.9019 250° West 448 516 40,000  Level Houston Center
Thu 08:01:32 PM 31.4017 -92.0408 249° West 445 512 40,000 -488 Level Houston Center
Thu 08:02:33 PM 31.3589 -92.1733 249° West 438 504 39,000 -976 Descending Houston Center
Thu 08:03:35 PM 31.3164 -92.3075 250° West 443 510 38,000 -484 Descending Houston Center
Thu 08:04:37 PM 31.2614 -92.4742 249° West 459 528 38,000  Level Houston Center
Thu 08:05:39 PM 31.1950 -92.5994 238° Southwest 457 526 38,000  Level Houston Center
Thu 08:06:41 PM 31.1247 -92.7242 237° Southwest 460 529 38,000  Level Houston Center
Thu 08:07:43 PM 31.0578 -92.8536 239° Southwest 467 537 38,000  Level Houston Center
Thu 08:08:45 PM 30.9903 -92.9800 238° Southwest 463 533 38,000  Level Houston Center
Thu 08:09:47 PM 30.9225 -93.1086 238° Southwest 468 539 38,000  Level Houston Center
Thu 08:10:49 PM 30.8442 -93.2625 239° Southwest 465 535 38,000 -532 Level Houston Center
Thu 08:11:51 PM 30.7944 -93.3969 247° West 459 528 36,900 -968 Descending Houston Center
Thu 08:12:53 PM 30.7489 -93.5361 249° West 468 539 36,000 -1,171 Descending Houston Center
Thu 08:13:54 PM 30.7036 -93.6731 249° West 460 529 34,500 -1,024 Descending Houston Center
Thu 08:14:56 PM 30.6592 -93.8156 250° West 474 545 33,900 -1,452 Descending Houston Center
Thu 08:15:58 PM 30.6203 -93.9911 256° West 474 545 31,500 -2,613 Descending Houston Center
Thu 08:17:00 PM 30.5878 -94.1297 255° West 458 527 28,500 -3,000 Descending Houston Center
Thu 08:18:02 PM 30.5558 -94.2658 255° West 445 512 25,300 -2,976 Descending Houston Center
Thu 08:19:05 PM 30.5250 -94.3958 255° West 429 494 22,300 -2,784 Descending Houston Center
Thu 08:20:07 PM 30.4906 -94.5200 252° West 403 464 19,500 -3,000 Descending Houston Center
Thu 08:21:09 PM 30.4164 -94.6394 234° Southwest 388 447 16,100 -2,613 Descending Houston Center
Thu 08:22:11 PM 30.3528 -94.7392 234° Southwest 385 443 14,100 -1,500 Descending Houston Center
Thu 08:23:13 PM 30.2892 -94.8364 233° Southwest 381 438 13,000 -677 Descending Houston Center
Thu 08:24:15 PM 30.2286 -94.9314 234° Southwest 371 427 12,700 -1,299 Descending Houston Center
Thu 08:25:27 PM 30.1469 -95.0531 232° Southwest 371 427 10,100 -1,306 Descending Houston Center
Thu 08:26:19 PM 30.0861 -95.0914 209° Southwest 360 414 10,000 -51 Descending Houston Center
Thu 08:27:24 PM 29.9706 -95.1422 201° Southwest 356 410 10,000 -339 Level Houston Center
Thu 08:28:23 PM 29.8933 -95.1753 200° South 323 372 9,300 -1,349 Descending Houston Center
Thu 08:29:33 PM 29.8008 -95.2161 201° Southwest 300 345 7,100 -1,466 Descending Houston Center
Thu 08:30:34 PM 29.7219 -95.2472 199° South 300 345 6,100 -569 Descending Houston Center
Thu 08:31:29 PM 29.6664 -95.2722 201° Southwest 291 335 6,000 -738 Descending Houston Center
Thu 08:32:36 PM 29.6303 -95.3714 247° West 264 304 4,600 -1,452 Descending Houston Center
Thu 08:33:33 PM 29.6703 -95.4211 313° West 257 296 3,000 -1,261 Descending Houston Center
Thu 08:34:35 PM 29.7131 -95.3739 44° Northeast 238 274 2,100 -850 Descending Houston Center
Thu 08:35:40 PM 29.6850 -95.3264 124° Southeast 150 173 1,200 -726 Descending Houston Center
Thu 08:36:39 PM 29.6794 -95.2908 100° East 154 177 600 -496 Descending Houston Center
Thu 08:37:41 PM 29.6472 -95.2867 174° South 130 150 200 -387 Descending Houston Center

Login

Don't have an account? Register now (free) for customized features, flight alerts, and more!